Arlanda current weather conditions

sailwx.info

Wind from 250 at 14 knots

Air temperature 2.0° C
Visibility: greater than 5.4 NM
Dewpoint 1.0° C

Last reported at 2017-Jan-23 00:20 UTC.
Time now 2017-Jan-23 02:35 UTC

Location: N 59°39' E 017°56'.
View on Google Maps.

See reports from other nearby stations

  
Tides and Currents Weather Stations Pressure Air Temp Water Temp Dewpoint Dewpoint Depression Visibility Wind Speed Wind Dir Waves Ship Positions
date/time (UTC)wind fromknots sea level pressurealtimeterstation pressurevisibilityair tempwater tempwave heightnotes
2017-Jan-23 01:20 260 13 5.4 2.0
2017-Jan-23 00:50 260 14 5.4 2.0
2017-Jan-23 00:20 250 14 5.4 2.0
2017-Jan-22 23:50 260 14 5.4 2.0
2017-Jan-22 23:20 250 13 5.4 2.0
2017-Jan-22 22:50 250 13 5.4 2.0
2017-Jan-22 22:20 260 13 5.4 2.0
2017-Jan-22 21:50 260 13 5.4 2.0
2017-Jan-22 21:20 250 14 3.8 2.0 Mist.
2017-Jan-22 20:50 250 14 5.4 2.0
2017-Jan-22 20:20 260 14 5.4 2.0
2017-Jan-22 19:50 250 14 4.9 2.0
2017-Jan-22 19:20 260 13 5.4 2.0
2017-Jan-22 18:50 260 13 4.9 2.0 Mist.
2017-Jan-22 18:20 250 14 3.2 1.0 Mist.
2017-Jan-22 17:50 250 17 4.3 1.0 Mist.
2017-Jan-22 17:20 250 17 5.4 1.0
2017-Jan-22 16:50 250 15 5.4 1.0
2017-Jan-22 16:20 250 15 3.8 1.0 Mist.
2017-Jan-22 15:50 250 13 1.6-0.0 Mist.
2017-Jan-22 15:20 250 13 1.1-0.0 Mist.
2017-Jan-22 14:50 250 13 1.9-0.0 Mist.
2017-Jan-22 14:20 250 14 2.7-0.0 Mist.
2017-Jan-22 13:50 250 13 3.2-0.0 Mist.
2017-Jan-22 13:20 250 15 3.2-0.0 Mist.
2017-Jan-22 12:50 250 15 2.6-0.0 Mist.
2017-Jan-22 12:20 260 12 1.7-0.0 Mist.
2017-Jan-22 11:50 260 12 4.3-0.0 Mist.
2017-Jan-22 11:20 260 11 3.8-0.0 Mist.
2017-Jan-22 10:50 250 12 4.3-0.0 Mist.
2017-Jan-22 10:20 250 9 5.4-0.0
2017-Jan-22 09:50 250 13 5.4-0.0 Mist.
2017-Jan-22 09:20 240 12 5.4-1.0 Mist.
2017-Jan-22 08:50 240 11 5.4-1.0 Mist.
2017-Jan-22 08:20 240 11 5.4-1.0
2017-Jan-22 07:50 240 9 5.4-1.0
2017-Jan-22 07:20 250 9 5.4-1.0
2017-Jan-22 06:50 250 11 5.4-1.0
2017-Jan-22 06:20 250 9 5.4-1.0
2017-Jan-22 05:50 240 7 5.4-1.0
2017-Jan-22 05:20 240 6 5.4-1.0
2017-Jan-22 04:50 210 5 5.4-2.0
2017-Jan-22 04:20 210 5 4.9-3.0 Patches of fog.
2017-Jan-22 03:50 230 6 4.3-2.0 Patches of fog.
2017-Jan-22 03:20 230 5 4.9-2.0 Patches of fog.
2017-Jan-22 02:50 250 5 3.8-2.0 Patches of fog.
2017-Jan-22 02:20 250 6 2.7-1.0 Patches of fog.
2017-Jan-22 01:50 230 5 5.4-2.0 Mist.
2017-Jan-22 01:20 230 4 5.4-1.0 Mist.
2017-Jan-22 00:50 250 6 5.4-2.0
2017-Jan-22 00:20 260 7 5.4-2.0
2017-Jan-21 23:50 250 5 5.4-3.0
2017-Jan-21 23:20 230 6 5.4-1.0
2017-Jan-21 22:50 230 4 5.4-2.0
2017-Jan-21 22:20 230 4 5.4-1.0
2017-Jan-21 21:50 230 5 5.4-2.0
2017-Jan-21 21:20 230 4 5.4-1.0
2017-Jan-21 20:50 240 5 5.4-1.0
2017-Jan-21 20:20 250 5 5.4-1.0
2017-Jan-21 19:50 220 5 5.4-1.0
2017-Jan-21 19:20 180 2 5.4-1.0
2017-Jan-21 18:50 220 2 5.4-0.0
2017-Jan-21 18:20 230 5 5.4-1.0
2017-Jan-21 17:50 240 4 5.4-1.0
2017-Jan-21 17:20 240 2 5.4-0.0
2017-Jan-21 16:50 250 2 5.4-0.0
2017-Jan-21 16:20 190 2 5.4-0.0
2017-Jan-21 15:50 260 2 5.4 1.0
2017-Jan-21 15:20 250 4 5.4 2.0
2017-Jan-21 14:50 230 4 5.4 3.0
2017-Jan-21 14:20 230 2 5.4 3.0
2017-Jan-21 13:50 270 2 5.4 3.0
2017-Jan-21 13:20 280 5 5.4 3.0
2017-Jan-21 12:50 280 5 5.4 3.0
2017-Jan-21 12:20 270 6 5.4 3.0
2017-Jan-21 11:50 230 4 5.4 2.0
2017-Jan-21 11:20 260 5 5.4 2.0
2017-Jan-21 10:50 5.4 2.0
2017-Jan-21 10:20 240 5 5.4 1.0
2017-Jan-21 09:50 250 2 5.4 1.0
2017-Jan-21 09:20 260 4 5.4 1.0
2017-Jan-21 08:50 270 5 5.4-0.0
2017-Jan-21 08:20 280 6 5.4-0.0
2017-Jan-21 07:50 230 4 5.4-1.0
2017-Jan-21 07:20 240 5 5.4-0.0
2017-Jan-21 06:50 240 6 5.4-1.0
2017-Jan-21 06:20 250 6 5.4-1.0
2017-Jan-21 05:50 240 4 5.4-2.0
2017-Jan-21 05:20 230 2 5.4-2.0
2017-Jan-21 04:50 220 2 5.4-2.0
2017-Jan-21 04:20 240 2 5.4-3.0
2017-Jan-21 03:50 250 5 5.4-1.0
2017-Jan-21 03:20 260 5 5.4-1.0
2017-Jan-21 02:50 230 4 5.4-1.0
2017-Jan-21 02:20 260 4 5.4-1.0